www.pogodaiklimat.ru

Погода и климат >> Архив погоды >> Канада >> Coral Harbour Arpt


ПОГОДА в Coral Harbour Arpt

  • Прогноз погоды в Coral Harbour Arpt
  • Монитор погоды в Coral Harbour Arpt
  • Климат города

АРХИВ ПОГОДЫ в Coral Harbour Arpt

Время (UTC), дата Ветер
(напр.,м/с)
 
Видим.   Явления Облачность Т
(С)
Тd
(С)
f
(%)
Тe
(С)
Тes
(С)
Комфортность P
(гПа)
Po
(гПа)
Тmin
(С)
Tmax
(С)
R
(мм)
R24
(мм)
S
(см)
15 11.09 Ю 5 24 км 10/10 300 м
[]
+4.1 +3.8 98 -1 -1 1004.0 996.2
18 11.09 Ю 5 24 км слабый дождь 10/10 300 м
[Sc]
+6.7 +4.9 88 +2 +2 1004.5 996.7 +6.7 0.2
21 11.09 З 8 24 км 10/10 300 м
[]
+6.2 +4.4 88 +1 +1 1005.3 997.5
00 12.09 Ю 8 24 км {дождь} 10/10 300 м
[Sc]
+3.6 +2.9 95 -3 -3 1006.3 998.4 +1.3 +6.8 0.2
03 12.09 0 24 км 10/10 300 м
[]
+3.0 +2.7 98 1006.0 998.1
06 12.09 0 24 км 10/10 300 м
[Sc]
+2.5 +1.8 95 1004.8 997.0 +1.3 +6.8
09 12.09 0 24 км 10/10 300 м
[]
+2.8 +2.5 98 1003.2 995.4
12 12.09 0 6000 м слабый дождь 10/10 300 м
[Sc]
+3.5 +3.5 100 1002.6 994.8 +2.0 +6.8 2
15 12.09 СЗ 8 24 км 5/5 300 м
[]
+3.5 +2.8 95 -3 -3 1004.8 997.0
18 12.09 СЗ 8 24 км {дождь} 9/9 600 м
[Sc]
+2.7 -1.8 72 -4 -4 1007.7 999.8 +2.0 +3.7 0.0
21 12.09 СЗ 5 24 км 9/9 300 м
[]
+4.1 +0.4 77 -1 -1 1009.4 1001.5
00 13.09 З 8 24 км {снег} 8/8 300 м
[Sc]
+0.5 +0.5 100 -7 -7 1011.5 1003.6 +0.5 +4.8 0.0
03 13.09 0 24 км 1/1 300 м
[]
-1.0 -1.0 100 1013.4 1005.5
06 13.09 0 24 км 1/1 300 м
[Sc]
+1.0 +1.0 100 1015.6 1007.6
09 13.09 0 24 км 1/1 300 м
[]
-1.8 -1.8 100 1017.7 1009.6
12 13.09 0 24 км 9/9 300 м
[Sc]
-0.5 -0.5 100 1019.2 1011.1
15 13.09 З 5 24 км 9/9 300 м
[]
+3.0 +1.5 90 -2 -2 1019.9 1011.8
18 13.09 З 8 24 км {снег} 8/8 300 м
[Sc]
+3.3 -1.6 70 -3 -3 1020.6 1012.5 +5.2 0.0
21 13.09 З 5 24 км 4/4 300 м
[]
+5.5 -1.6 60 +1 +2 1020.1 1012.0
00 14.09 З 5 24 км {снег} 9/8 300 м
[Sc]
+2.0 +1.7 98 -4 -4 1020.4 1012.3 -1.8 +5.5 0.0
03 14.09 0 24 км 10/10 300 м
[]
-0.5 -0.5 100 1019.5 1011.4
06 14.09 З 5 12 км слабый дождь {снег, морось} 10/10 100 м
[St]
+2.0 +2.0 100 -4 -4 1018.9 1010.8 -1.8 +5.5 0.0
09 14.09 З 3 4800 м 10/10 50 м
[]
+1.0 +1.0 100 -3 -3 1018.1 1010.2
12 14.09 З 3 12 км слабая морось 10/10 50 м
[St]
+1.5 +1.5 100 -3 -3 1017.3 1009.2 +5.5 0.2
15 14.09 0 1600 м 10/10 50 м
[]
+1.1 +1.1 100 1016.7 1008.6
18 14.09 0 800 м слабый снег {морось} 10/10 50 м
[St]
+2.5 +2.5 100 1015.8 1007.9 1
21 14.09 0 12 км 10/10 100 м
[]
+1.7 +1.7 100 1014.8 1006.8
00 15.09 0 9000 м слабый снег 10/10 50 м
[St]
+0.8 +0.8 100 1013.7 1005.8 +4.1 0.0
03 15.09 0 6000 м 9/9 100 м
[]
+0.2 +0.2 100 1012.5 1004.6
06 15.09 0 9000 м слабый снег 10/0 100 м
[As op]
+0.4 +0.4 100 1010.9 1003.0 1 1
09 15.09 0 19 км 10/10 100 м
[]
+0.2 +0.2 100 1009.9 1002.0
12 15.09 0 6000 м слабый снег 10/10 200 м
[Sc]
-0.2 -0.2 100 1009.4 1001.5 -0.2 1 2
15 15.09 0 19 км 10/10 300 м
[]
+1.7 +0.5 92 1009.1 1001.2
18 15.09 0 24 км слабый снег 8/3 600 м
[Sc Ac As Ci fib]
+2.0 +0.1 87 1009.3 1001.4 -0.2 +2.7 0.6
21 15.09 0 24 км 8/8 600 м
[]
+3.3 0.0 79 1009.8 1001.9
00 16.09 0 24 км {снег} 9/1 600 м
[Sc Ac As Ci fib]
+0.1 -0.6 95 1010.2 1002.3 -0.2 +3.5 0.0
03 16.09 0 24 км 8/8 600 м
[]
-0.6 -1.3 95 1010.0 1002.1
06 16.09 0 6000 м слабый снег 10/10 300 м
[Sc]
-0.3 -0.3 100 1010.2 1002.3 -0.8 +3.5 0.4
09 16.09 0 9000 м 10/10 300 м
[]
-0.6 -0.6 100 1010.6 1002.7
12 16.09 0 24 км слабый снег 10/3 300 м
[Sc Ac As Ci fib]
-1.6 -1.6 100 1011.7 1003.6 -1.6 +3.5 0.4 <0.5
15 16.09 0 24 км 9/9 300 м
[]
+3.5 -1.8 68 1013.4 1005.5
18 16.09 0 24 км {снег} 9/1 300 м
[Sc Ac As Ci fib]
+5.4 -1.1 63 1015.2 1007.3 -1.6 +5.4 0.0
21 16.09 С 8 24 км 4/4 300 м
[]
+3.0 -1.9 70 -3 -3 1016.6 1008.5
00 17.09 С 8 24 км 3/3 300 м
[Sc]
-1.1 -4.8 76 -9 -9 1018.7 1010.6 -1.6 +5.4
03 17.09 0 24 км 5/5 300 м
[]
-1.6 -3.2 89 1020.1 1012.0
06 17.09 0 24 км 9/9 300 м
[Sc]
-0.6 -4.8 73 1020.3 1012.2 -2.0 +5.4
09 17.09 0 24 км 10/10 300 м
[]
-1.0 -2.3 91 1020.3 1012.2
12 17.09 0 24 км {снег} 10/9 300 м
[Sc Ac As]
-0.7 -4.8 74 1020.6 1012.5 -2.0 +5.4 0.0
15 17.09 З 5 24 км 10/10 600 м
[]
+2.0 -0.1 86 -4 -4 1020.1 1012.0
18 17.09 0 24 км 10/10 600 м
[Sc]
+2.0 -0.1 86 1019.6 1011.5 -2.0 +2.0
21 17.09 0 24 км 9/9 600 м
[]
+2.5 -1.5 75 1019.1 1011.0
00 18.09 0 24 км {дождь} 9/9 600 м
[Sc]
+1.3 0.0 91 1019.0 1010.9 -1.1 +3.6 0.0
03 18.09 0 24 км 10/10 600 м
[]
+0.9 +0.8 99 1018.7 1010.6
06 18.09 0 24 км слабый снег 10/10 600 м
[Sc]
+0.7 +0.7 100 1017.9 1009.8 -1.1 +3.6 0.0
09 18.09 0 24 км 9/9 600 м
[]
+0.5 +0.5 100 1017.2 1009.1
12 18.09 0 24 км {снег} 10/10 300 м
[Sc]
+2.0 +2.0 100 1016.1 1008.0 0.0 +3.6 0.0

 

Местоположение метеостанции Coral Harbour Arpt (Канада): широта 64.20 долгота -83.36 высота над уровнем моря 64 м.

В архиве по умолчанию представлена погода в Coral Harbour Arpt за последнюю неделю. Архивные данные за месяц целиком и за предыдущие месяцы, начиная с января 2011 года, Вы можете получить, выбрав интересующий диапазон дат из раскрывающегося списка и нажав кнопку "Ввод!".


*Определитесь, кто Вы:
робот инопланетянин человек

Внимание! Время в таблицах - всемирное. Для получения местного времени необходимо прибавить поправку, которая в Coral Harbour Arpt равна -5 ч.

Смотрите также архив погоды в соседних городах и на ближайших метеорологических станциях:

Погода в Cape Dorset Climate (Канада) (330 км)
Погода в Wager Bay (Канада) (340 км)
Погода в Rankin Inlet (Канада) (460 км)
Погода в Hall Beach Climate (Канада) (518 км)
Погода в Pelly Bay (Канада) (549 км)
Погода в Kugaaruk climate (Канада) (560 км)
Погода в Rowley Island (Канада) (575 км)
Погода в Parc National Des Pingualuit (Канада) (589 км)
Погода в Baker Lake Climate (Канада) (610 км)
Погода в Baker Lake Airport (Канада) (613 км)

Пояснения к столбцам:

Ветер - указаны скорость ветра в м/с - средняя за 10 мин, порывы в срок и между сроками (в фигурных скобках) и направление, откуда дует ветер: С - северный, СВ - северо-восточный, В - восточный, ЮВ - юго-восточный, Ю - южный, ЮЗ - юго-западный, З - западный, СЗ - северо-западный.
Видимость - горизонтальная дальность видимости в метрах или километрах. При видимости от 1 до 10 км при отсутствии осадков обычно наблюдается дымка, при ухудшении видимости до 1 км и менее - туман. В сухую погоду видимость может ухудшаться дымом, пылью или мглою.
Явления - указаны атмосферные явления, наблюдавшиеся в срок или в последний час перед сроком; фигурными скобками обозначены явления, наблюдавшиеся между сроками (за 1-3 часа до срока); квадратными скобками обозначены град или гололедные отложения с указанием их диаметра в мм.
Облачность - указаны через наклонную черту общая и нижняя облачность в баллах и высота нижней границы облаков в метрах; квадратными скобками обозначены формы облаков: Ci - перистые, Cs - перисто-слоистые, Cc - перисто-кучевые, Ac - высококучевые, As - высокослоистые, Sc - слоисто-кучевые, Ns - слоисто-дождевые, Cu - кучевые, Cb - кучево-дождевые. Подробнее классификацию облаков см. в Атласе облаков (PDF).
T - Температура воздуха - температура, измеренная на высоте 2 м над землей.
Td - Температура точки росы - температура, при понижении до которой содержащийся в воздухе водяной пар достигнет насыщения.
f - Относительная влажность воздуха - влажноcть воздуха, измеренная на высоте 2 м над землей.
Te - Эффективная температура - температура, которую ощущает одетый по сезону человек в тени. Характеристика душности погоды. При расчете учитывается влияние влажности воздуха и скорости ветра на теплоощущения человека.
Tes - Эффективная температура на солнце - температура, которую ощущает человек, с поправкой на солнечный нагрев. Характеристика знойности погоды. Зависит от высоты солнца над горизонтом, облачности и скорости ветра. Ночью, в пасмурную погоду, а также при ветре 12 м/с и более поправка равна нулю.
P - Атмосферное давление - приведенное к уровню моря атмосферное давление.
Po - Атмосферное давление - измеренное на уровне метеостанции атмосферное давление.
Tmin - Минимальная температура - минимум температуры воздуха на высоте 2 м над землей.
Tmax - Максимальная температура - максимум температуры воздуха на высоте 2 м над землей.
R - Количество осадков - Количество выпавших осадков за период времени, мм. При наведении курсора мыши на число - период времени, за который выпало указанное количество осадков.
R24 - Количество осадков - Количество выпавших осадков за 24 часа, мм.
S - Снежный покров - Высота снежного покрова, см. При наведении курсора мыши на число - состояние снежного покрова и степень покрытия местности в баллах.